KG5ELE Weather Reports


time (UTC)temp
C
wind
direction
speed
KPH
gust
KPH
rain 1hr
cm
rain 24hr
cm
rain mn
cm
humidity
%
barometer
mb
20260508064525 5 0 0.0 0.0 0.00 0.00 0.00 56 1011.6
20260508063004 6 0 0.0 0.0 0.00 0.00 0.00 55 1011.5
20260508061504 6 0 0.0 0.0 0.00 0.00 0.00 56 1011.5
20260508060005 6 0 0.0 0.0 0.00 0.00 0.00 50 1011.5
20260508054504 6 0 0.0 0.0 0.00 0.00 0.00 47 1011.4
20260508053004 7 0 0.0 0.0 0.00 0.00 0.00 44 1011.4
20260508051504 8 0 0.0 0.0 0.00 0.00 0.00 42 1011.5
20260508050025 8 0 0.0 0.0 0.00 0.00 0.00 37 1011.4
20260508044504 9 0 0.0 0.0 0.00 0.00 0.00 36 1011.4
20260508043004 10 0 0.0 0.0 0.00 0.00 0.00 36 1011.4
20260508041505 10 0 0.0 0.0 0.00 0.00 0.00 39 1011.4
20260508040004 11 138 0.0 1.6 0.00 0.00 0.00 37 1011.3
20260508034511 11 0 0.0 0.0 0.00 0.00 0.00 38 1011.1
20260508033004 12 0 0.0 0.0 0.00 0.00 0.00 35 1010.7
20260508031504 11 138 0.0 1.6 0.00 0.00 0.00 35 1010.3
20260508030004 12 0 0.0 0.0 0.00 0.00 0.00 31 1010.1
20260508024525 13 0 0.0 0.0 0.00 0.00 0.00 28 1009.8
20260508023004 15 0 0.0 0.0 0.00 0.00 0.00 26 1009.5
20260508021504 16 0 0.0 0.0 0.00 0.00 0.00 23 1009.2
20260508020004 17 0 0.0 0.0 0.00 0.00 0.00 21 1009.0
20260508014504 20 0 0.0 0.0 0.00 0.00 0.00 17 1008.9
20260508013011 22 0 0.0 0.0 0.00 0.00 0.00 13 1008.9
20260508011504 23 0 0.0 0.0 0.00 0.00 0.00 11 1008.8
20260508010004 22 141 0.0 3.2 0.00 0.00 0.00 11 1008.9
20260508004504 23 79 0.0 1.6 0.00 0.00 0.00 10 1009.0
20260508003004 23 101 0.0 4.8 0.00 0.00 0.00 11 1009.1
20260508001504 23 56 1.6 6.4 0.00 0.00 0.00 11 1009.2
20260508000025 23 143 0.0 3.2 0.00 0.00 0.00 11 1009.3
20260507234525 22 71 1.6 4.8 0.00 0.00 0.00 11 1009.2
20260507233004 22 61 1.6 4.8 0.00 0.00 0.00 12 1009.4
20260507231504 22 40 1.6 6.4 0.00 0.00 0.00 12 1009.5
20260507230025 22 272 1.6 6.4 0.00 0.00 0.00 13 1009.7
20260507224504 22 86 3.2 6.4 0.00 0.00 0.00 13 1010.0
20260507223004 22 107 1.6 4.8 0.00 0.00 0.00 13 1010.2
20260507221504 22 284 1.6 4.8 0.00 0.00 0.00 14 1010.5
20260507220004 22 39 3.2 8.0 0.00 0.00 0.00 15 1010.6
20260507214503 23 264 3.2 6.4 0.00 0.00 0.00 15 1010.9
20260507213004 23 264 1.6 6.4 0.00 0.00 0.00 16 1011.3
20260507211525 23 250 3.2 12.9 0.00 0.00 0.00 15 1011.6
20260507210004 22 63 1.6 6.4 0.00 0.00 0.00 17 1012.0
20260507204504 22 90 3.2 9.7 0.00 0.00 0.00 16 1012.3
20260507203025 23 204 1.6 6.4 0.00 0.00 0.00 16 1012.6
20260507201504 22 18 3.2 8.0 0.00 0.00 0.00 15 1013.0
20260507200003 21 276 1.6 6.4 0.00 0.00 0.00 17 1013.2
20260507194503 21 316 1.6 9.7 0.00 0.00 0.00 17 1013.5
20260507193003 21 37 1.6 6.4 0.00 0.00 0.00 19 1013.8
20260507191503 20 310 3.2 8.0 0.00 0.00 0.00 21 1014.1
20260507190004 20 296 3.2 9.7 0.00 0.00 0.00 22 1014.4
20260507184503 20 33 3.2 8.0 0.00 0.00 0.00 18 1014.6
20260507183024 20 32 1.6 8.0 0.00 0.00 0.00 23 1014.9
20260507181503 20 253 1.6 9.7 0.00 0.00 0.00 25 1015.2
20260507180003 18 288 3.2 9.7 0.00 0.00 0.00 24 1015.4
20260507174503 18 12 1.6 6.4 0.00 0.00 0.00 25 1015.6
20260507173003 20 287 1.6 11.3 0.00 0.00 0.00 22 1015.8
20260507171503 19 235 0.0 4.8 0.00 0.00 0.00 26 1016.0
20260507170003 18 140 0.0 1.6 0.00 0.00 0.00 30 1016.1
20260507164503 17 246 1.6 4.8 0.00 0.00 0.00 32 1016.3
20260507163024 17 226 0.0 1.6 0.00 0.00 0.00 34 1016.5
20260507161524 15 51 0.0 6.4 0.00 0.00 0.00 39 1016.6
20260507160003 15 22 1.6 8.0 0.00 0.00 0.00 41 1016.9
20260507154524 13 320 0.0 4.8 0.00 0.00 0.00 46 1016.9
20260507153024 12 272 1.6 8.0 0.00 0.00 0.00 48 1017.2
20260507151524 12 280 1.6 8.0 0.00 0.00 0.00 51 1017.3
20260507150024 11 262 1.6 11.3 0.00 0.00 0.00 54 1017.5
20260507144505 11 269 1.6 6.4 0.00 0.00 0.00 57 1017.6
20260507143005 10 305 1.6 6.4 0.00 0.00 0.00 58 1017.7
20260507141505 10 285 1.6 6.4 0.00 0.00 0.00 59 1017.9
20260507140006 9 263 1.6 9.7 0.00 0.00 0.00 57 1017.9
20260507134505 8 31 0.0 1.6 0.00 0.00 0.00 57 1018.0
20260507133005 6 65 0.0 3.2 0.00 0.00 0.00 59 1018.0
20260507131526 5 95 0.0 4.8 0.00 0.00 0.00 62 1017.8
20260507130005 3 273 0.0 1.6 0.00 0.00 0.00 67 1017.6
20260507124526 2 0 0.0 0.0 0.00 0.00 0.00 76 1017.6
20260507123005 0 0 0.0 0.0 0.00 0.00 0.00 75 1017.4
20260507121505 0 0 0.0 0.0 0.00 0.00 0.00 75 1017.4
20260507120026 1 0 0.0 0.0 0.00 0.00 0.00 73 1017.3
20260507114526 0 0 0.0 0.0 0.00 0.00 0.00 73 1017.3
20260507113006 1 0 0.0 0.0 0.00 0.00 0.00 72 1017.3
20260507111526 1 0 0.0 0.0 0.00 0.00 0.00 71 1017.3
20260507110005 1 0 0.0 0.0 0.00 0.00 0.00 71 1017.3
20260507104526 1 0 0.0 0.0 0.00 0.00 0.00 72 1017.1
20260507103005 1 0 0.0 0.0 0.00 0.00 0.00 70 1017.0
20260507101506 2 0 0.0 0.0 0.00 0.00 0.00 70 1016.8
20260507100005 2 0 0.0 0.0 0.00 0.00 0.00 69 1016.6
20260507094505 3 0 0.0 0.0 0.00 0.00 0.00 68 1016.4
20260507093005 3 0 0.0 0.0 0.00 0.00 0.00 69 1016.2
20260507091505 3 0 0.0 0.0 0.00 0.00 0.00 72 1016.2
20260507090005 3 0 0.0 0.0 0.00 0.00 0.00 72 1016.1
20260507084505 3 0 0.0 0.0 0.00 0.00 0.00 72 1015.9
20260507083005 3 0 0.0 0.0 0.00 0.00 0.00 71 1015.8
20260507081504 4 0 0.0 0.0 0.00 0.00 0.00 68 1015.8
20260507080026 5 0 0.0 0.0 0.00 0.00 0.00 68 1015.7
20260507074504 5 0 0.0 0.0 0.00 0.00 0.00 67 1015.6
20260507073026 5 0 0.0 0.0 0.00 0.00 0.00 66 1015.7
20260507071504 6 0 0.0 0.0 0.00 0.00 0.00 66 1015.5
20260507070009 6 0 0.0 0.0 0.00 0.00 0.00 63 1015.4